Location: Newark
(46.7000°N, 60.6000°W)
Time: 03:00:13
(UTC+00:00)

A-11 Canister half - Pass Details

Date: 27 October 2020
Orbit: 1525 x 1683 km, 47.3° (Epoch: 23 November)

Event Time Altitude Azimuth Distance (km) Brightness Sun altitude
Rises 03:12:57 0° 285° (WNW) 4,678 11.8 -55.5°
Enters shadow 03:14:56 - 277° (W) 4,252 11.4 -55.6°
Reaches altitude 10° 03:18:23 10° 259° (W) 3,696 - -55.7°
Maximum altitude 03:21:53 13° 237° (WSW) 3,491 - -55.8°
Drops below altitude 10° 03:25:24 10° 214° (SW) 3,713 - -55.9°
Sets 03:30:56 0° 188° (S) 4,719 - -56.1°
